When you browse on this site, cookies collect data to enhance your experience and personalize the content and advertising you see.
Visit our Privacy Policy to learn more. By continuing to use the site, you agree to this use of cookies and data.
  • In Romania
  • List of Countries
  • For 7 days
  • Water Temperature
  • Weather Map
  • Weather Widgets
  • user-avatar
    Login

    Hourly Weather Andora

    Today, 2 June, Tuesday

    Time Temperature Precipitation Wind Pressure Humidity
    00:00 +9°C° 0 mm 1 mps 624 mmHg 88%
    01:00 +9°C° 0 mm 1 mps 624 mmHg 87%
    02:00 +8°C° 0 mm 1 mps 623 mmHg 85%
    03:00 +8°C° 0 mm 1 mps 623 mmHg 84%
    04:00 +9°C° 0 mm 1 mps 624 mmHg 82%
    05:00 +10°C° 0 mm 1 mps 624 mmHg 81%
    06:00 +11°C° 0 mm 1 mps 625 mmHg 79%
    07:00 +13°C° 0 mm 1 mps 626 mmHg 71%
    08:00 +15°C° 0 mm 1 mps 626 mmHg 63%
    09:00 +18°C° 0 mm 1 mps 627 mmHg 55%
    10:00 +19°C° 0.1 mm 1 mps 627 mmHg 54%
    11:00 +18°C° 0.1 mm 2 mps 627 mmHg 53%
    12:00 +19°C° 0.1 mm 2 mps 627 mmHg 52%
    13:00 +18°C° 0.6 mm 2 mps 626 mmHg 60%
    14:00 +18°C° 0.6 mm 1 mps 626 mmHg 67%
    15:00 +16°C° 0.6 mm 1 mps 625 mmHg 74%
    16:00 +16°C° 1 mm 1 mps 625 mmHg 78%
    17:00 +15°C° 1 mm 1 mps 624 mmHg 82%
    18:00 +13°C° 1 mm 0 mps 624 mmHg 86%
    19:00 +12°C° 0.1 mm 0 mps 624 mmHg 88%
    20:00 +12°C° 0.1 mm 1 mps 623 mmHg 90%
    21:00 +11°C° 0.1 mm 1 mps 623 mmHg 93%
    22:00 +10°C° 0.1 mm 1 mps 623 mmHg 92%
    23:00 +10°C° 0.1 mm 1 mps 622 mmHg 92%

    Tomorrow, 3 June, Wednesday

    Time Temperature Precipitation Wind Pressure Humidity
    00:00 +10°C° 0.1 mm 1 mps 622 mmHg 91%
    01:00 +10°C° 0.2 mm 1 mps 621 mmHg 91%
    02:00 +10°C° 0.2 mm 1 mps 621 mmHg 91%
    03:00 +9°C° 0.2 mm 1 mps 621 mmHg 91%
    04:00 +10°C° 0 mm 1 mps 621 mmHg 89%
    05:00 +11°C° 0 mm 1 mps 621 mmHg 87%
    06:00 +12°C° 0 mm 1 mps 621 mmHg 86%
    07:00 +13°C° 0.6 mm 1 mps 622 mmHg 82%
    08:00 +15°C° 0.6 mm 1 mps 622 mmHg 79%
    09:00 +16°C° 0.6 mm 1 mps 622 mmHg 76%
    10:00 +16°C° 1.5 mm 1 mps 622 mmHg 77%
    11:00 +16°C° 1.5 mm 2 mps 621 mmHg 78%
    12:00 +16°C° 1.5 mm 2 mps 621 mmHg 79%
    13:00 +15°C° 1.4 mm 1 mps 621 mmHg 81%
    14:00 +15°C° 1.4 mm 1 mps 620 mmHg 83%
    15:00 +14°C° 1.4 mm 1 mps 620 mmHg 85%
    16:00 +14°C° 0.9 mm 1 mps 619 mmHg 87%
    17:00 +14°C° 0.9 mm 1 mps 619 mmHg 88%
    18:00 +12°C° 0.9 mm 0 mps 619 mmHg 90%
    19:00 +12°C° 1 mm 0 mps 618 mmHg 90%
    20:00 +11°C° 1 mm 0 mps 618 mmHg 91%
    21:00 +10°C° 1 mm 0 mps 618 mmHg 91%
    22:00 +11°C° 2.5 mm 1 mps 618 mmHg 93%
    23:00 +10°C° 2.5 mm 1 mps 617 mmHg 96%

    Day after tomorrow, 4 June, Thursday

    Time Temperature Precipitation Wind Pressure Humidity
    00:00 +10°C° 2.5 mm 1 mps 617 mmHg 98%
    01:00 +10°C° 2.6 mm 1 mps 617 mmHg 98%
    02:00 +9°C° 2.6 mm 1 mps 616 mmHg 98%
    03:00 +9°C° 2.6 mm 1 mps 616 mmHg 98%
    04:00 +9°C° 1.8 mm 1 mps 616 mmHg 98%
    05:00 +8°C° 1.8 mm 1 mps 615 mmHg 97%
    06:00 +8°C° 1.8 mm 1 mps 615 mmHg 97%
    07:00 +8°C° 0.8 mm 1 mps 615 mmHg 95%
    08:00 +9°C° 0.8 mm 1 mps 616 mmHg 94%
    09:00 +9°C° 0.8 mm 1 mps 616 mmHg 92%
    10:00 +9°C° 0.8 mm 1 mps 616 mmHg 91%
    11:00 +8°C° 0.8 mm 2 mps 616 mmHg 89%
    12:00 +8°C° 0.8 mm 2 mps 616 mmHg 87%
    13:00 +7°C° 1.2 mm 2 mps 615 mmHg 89%
    14:00 +7°C° 1.2 mm 2 mps 615 mmHg 90%
    15:00 +7°C° 1.2 mm 2 mps 615 mmHg 91%
    16:00 +7°C° 0.5 mm 2 mps 615 mmHg 89%
    17:00 +7°C° 0.5 mm 2 mps 615 mmHg 86%
    18:00 +7°C° 0.5 mm 2 mps 615 mmHg 83%
    19:00 +6°C° 0.1 mm 2 mps 616 mmHg 86%
    20:00 +5°C° 0.1 mm 2 mps 616 mmHg 90%
    21:00 +4°C° 0.1 mm 2 mps 616 mmHg 93%
    22:00 +4°C° 0 mm 2 mps 616 mmHg 92%
    23:00 +3°C° 0 mm 2 mps 616 mmHg 92%

    5 June, Friday

    Time Temperature Precipitation Wind Pressure Humidity
    00:00 +3°C° 0 mm 2 mps 616 mmHg 91%
    01:00 +3°C° 0 mm 2 mps 616 mmHg 91%
    02:00 +3°C° 0 mm 2 mps 616 mmHg 90%
    03:00 +3°C° 0 mm 2 mps 616 mmHg 90%
    04:00 +4°C° 0 mm 2 mps 617 mmHg 89%
    05:00 +4°C° 0 mm 2 mps 617 mmHg 88%
    06:00 +5°C° 0 mm 2 mps 617 mmHg 87%
    07:00 +7°C° 0 mm 2 mps 618 mmHg 79%
    08:00 +8°C° 0 mm 2 mps 619 mmHg 70%
    09:00 +10°C° 0 mm 2 mps 620 mmHg 61%
    10:00 +12°C° 0 mm 2 mps 621 mmHg 59%
    11:00 +13°C° 0 mm 2 mps 621 mmHg 56%
    12:00 +14°C° 0 mm 2 mps 622 mmHg 53%
    13:00 +14°C° 0 mm 2 mps 622 mmHg 55%
    14:00 +14°C° 0 mm 2 mps 622 mmHg 57%
    15:00 +14°C° 0 mm 2 mps 621 mmHg 59%
    16:00 +13°C° 0 mm 2 mps 621 mmHg 65%
    17:00 +12°C° 0 mm 2 mps 621 mmHg 71%
    18:00 +11°C° 0 mm 1 mps 621 mmHg 76%
    19:00 +10°C° 0 mm 1 mps 621 mmHg 81%
    20:00 +9°C° 0 mm 1 mps 621 mmHg 85%
    21:00 +8°C° 0 mm 1 mps 621 mmHg 89%
    22:00 +7°C° 0 mm 1 mps 621 mmHg 91%
    23:00 +7°C° 0 mm 1 mps 621 mmHg 92%

    6 June, Saturday

    Time Temperature Precipitation Wind Pressure Humidity
    00:00 +6°C° 0 mm 0 mps 621 mmHg 93%
    01:00 +6°C° 0 mm 0 mps 621 mmHg 94%
    02:00 +7°C° 0 mm 1 mps 621 mmHg 94%
    03:00 +6°C° 0 mm 1 mps 620 mmHg 95%
    04:00 +7°C° 0 mm 1 mps 621 mmHg 92%
    05:00 +9°C° 0 mm 1 mps 621 mmHg 88%
    06:00 +9°C° 0 mm 0 mps 622 mmHg 85%
    07:00 +11°C° 0 mm 1 mps 623 mmHg 77%
    08:00 +13°C° 0 mm 1 mps 623 mmHg 68%
    09:00 +15°C° 0 mm 2 mps 624 mmHg 60%
    10:00 +16°C° 0 mm 2 mps 624 mmHg 56%
    11:00 +17°C° 0 mm 2 mps 624 mmHg 52%
    12:00 +18°C° 0 mm 2 mps 624 mmHg 49%
    13:00 +18°C° 0.1 mm 3 mps 623 mmHg 50%
    14:00 +18°C° 0.1 mm 3 mps 623 mmHg 51%
    15:00 +18°C° 0.1 mm 3 mps 622 mmHg 52%
    16:00 +16°C° 1 mm 2 mps 622 mmHg 64%
    17:00 +14°C° 1 mm 2 mps 621 mmHg 76%
    18:00 +13°C° 1 mm 1 mps 620 mmHg 88%
    19:00 +12°C° 1.4 mm 1 mps 620 mmHg 90%
    20:00 +11°C° 1.4 mm 1 mps 620 mmHg 93%
    21:00 +10°C° 1.4 mm 1 mps 620 mmHg 95%
    22:00 +9°C° 2.3 mm 1 mps 620 mmHg 95%
    23:00 +9°C° 2.3 mm 1 mps 619 mmHg 95%

    7 June, Sunday

    Time Temperature Precipitation Wind Pressure Humidity
    00:00 +9°C° 2.3 mm 1 mps 619 mmHg 95%
    01:00 +9°C° 0.1 mm 1 mps 619 mmHg 95%
    02:00 +8°C° 0.1 mm 1 mps 619 mmHg 95%
    03:00 +7°C° 0.1 mm 2 mps 619 mmHg 95%
    04:00 +8°C° 0.1 mm 2 mps 619 mmHg 94%
    05:00 +8°C° 0.1 mm 2 mps 620 mmHg 93%
    06:00 +8°C° 0.1 mm 2 mps 620 mmHg 92%
    07:00 +9°C° 0.1 mm 2 mps 621 mmHg 86%
    08:00 +12°C° 0.1 mm 1 mps 621 mmHg 81%
    09:00 +13°C° 0.1 mm 1 mps 622 mmHg 75%
    10:00 +13°C° 0.4 mm 1 mps 622 mmHg 76%
    11:00 +13°C° 0.4 mm 1 mps 622 mmHg 76%
    12:00 +13°C° 0.4 mm 2 mps 623 mmHg 77%
    13:00 +13°C° 1.2 mm 2 mps 622 mmHg 78%
    14:00 +13°C° 1.2 mm 2 mps 622 mmHg 80%
    15:00 +13°C° 1.2 mm 2 mps 622 mmHg 82%
    16:00 +12°C° 0.9 mm 2 mps 622 mmHg 85%
    17:00 +11°C° 0.9 mm 1 mps 622 mmHg 88%
    18:00 +11°C° 0.9 mm 1 mps 622 mmHg 92%
    19:00 +10°C° 0.7 mm 1 mps 622 mmHg 93%
    20:00 +10°C° 0.7 mm 1 mps 623 mmHg 94%
    21:00 +9°C° 0.7 mm 1 mps 623 mmHg 95%
    22:00 +9°C° 0.3 mm 1 mps 623 mmHg 96%
    23:00 +8°C° 0.3 mm 1 mps 623 mmHg 96%
    Show more